EX-ALTA-2 (56313 NORAD) Tracking and Keplerian Element Data

This shows tracking and keplerian element data for the satellite.

Feedback or suggestion? Click here.




ElementValue
Catalog56313
NameEX-ALTA-2
Epoch Orbit1937
Epoch Day238.48655383
Epoch Year2023
RAAN332.3067
Inclination51.6336
Eccentricity0.0009344
Argument of Perigee342.9001
Mean Anonmoly17.1679
Mean Motion15.68607173
Decay Rate0.00118117
L11 56313U 98067VE 23238.48655383 .00118117 00000+0 10072-2 0 9998
L22 56313 51.6336 332.3067 0009344 342.9001 17.1679 15.68607173 19372



Live tracking and technical data element details for EX-ALTA-2 (NORAD 56313). EX-ALTA-2 can be tracked NOW for your location showing map with azimuth and elevation plus other details from your city location.







IsCatalogInMostPopularTable: catalog: 56313, numindb: 14
Update: records affected: 1



GetName: 56313 EX-ALTA-2

Hit Count: updated at: Thu, 28 Sep 2023 04:04:27 GMT